Regional Weather Roundup
Issued by NWS

Home | Current Version | Previous Version | Graphics & Text | Print | Product List | Glossary On
Versions: 1 2 3 4 5 6 7 8 9 10 11 12 13 14 15 16 17 18 19 20 21 22 23 24 25 26 27 28 29 30 31 32 33 34 35 36 37 38 39 40 41 42 43 44 45 46 47 48 49 50
026
ASUS43 KLOT 081758
RWRIL

ILLINOIS REGIONAL WEATHER ROUNDUP
NATIONAL WEATHER SERVICE CHICAGO/ROMEOVILLE IL
1200 PM CST MON FEB 08 2016

NOTE: "FAIR" INDICATES FEW OR NO CLOUDS BELOW 12,000 FEET WITH NO
SIGNIFICANT WEATHER AND/OR OBSTRUCTIONS TO VISIBILITY.

* THESE STATIONS ARE NOT UNDER NWS QUALITY CONTROL. THEY ALSO MAY NOT
  REPORT WEATHER SUCH AS PRECIPITATION OR FOG.

ILZ001-002-007-009-015-016-024-081900-
NORTHWEST ILLINOIS

CITY           SKY/WX    TMP DP  RH WIND       PRES   REMARKS
MOLINE         NOT AVBL
$$

ILZ003-004-008-010-011-017-018-081900-
NORTH CENTRAL ILLINOIS

CITY           SKY/WX    TMP DP  RH WIND       PRES   REMARKS
ROCKFORD       NOT AVBL
$$

ILZ005-006-012>014-019>023-081900-
NORTHEAST ILLINOIS

CITY           SKY/WX    TMP DP  RH WIND       PRES   REMARKS
CHICAGO-OHARE  FLURRIES  28  22  78 NW12      29.66S WCI  18
6HR MIN TEMP:  28; 6HR MAX TEMP:  32; 6HR PCP: TRACE;

CHICAGO-MIDWAY NOT AVBL
AURORA         NOT AVBL
WAUKEGAN       CLOUDY    29  25  85 NW7       29.64S WCI  22
DUPAGE AIRPORT NOT AVBL
WHEELING       CLOUDY    28  23  80 W10       29.68R WCI  19
$$

LMZ740>746-081900-
SOUTHERN LAKE MICHIGAN

STATION/POSITION SKY/WX   TEMP    WIND        PRES    VSBY  WAVE
                          AIR SEA DIR/SP/G                  HT/PER
                          (F)     (DEG/KT/KT) (MB)    (MI)  (FT/S)
HARRISON CRIB              31     280/ 14/ 15   N/A
BURNHAM HARBOR             30     250/ 10/ 14   N/A
CALUMET HARBOR             31     270/  7/ 12 1004.1R
BURNS HARBOR               31     290/ 14/ 17 1005.1S
MICHIGAN CITY              31     240/ 16/ 17   N/A
$$

ILZ025>027-034>036-040-047-049-050-058-095>099-081900-
WEST-CENTRAL ILLINOIS

CITY           SKY/WX    TMP DP  RH WIND       PRES   REMARKS
QUINCY         LGT SNOW  19  12  74 NW24G35   29.89S WCI   2
$$

ILZ028>032-037-038-041>044-048-051>054-059>061-081900-
CENTRAL ILLINOIS

CITY           SKY/WX    TMP DP  RH WIND       PRES   REMARKS
DECATUR        CLOUDY    25  15  66 NW18G26   29.78S WCI  11
PEORIA         LGT SNOW  21  14  74 NW16G23   29.80S VSB 3/4 WCI   7
SPRINGFIELD    NOT AVBL
TAYLORVILLE    NOT AVBL
$$

ILZ033-039-045-046-055>057-062-063-081900-
EAST-CENTRAL ILLINOIS

CITY           SKY/WX    TMP DP  RH WIND       PRES   REMARKS
CHAMPAIGN      LGT SNOW  27  21  80 W20       29.74F WCI  13
MATTOON        LGT SNOW  25  20  81 W25       29.76S WCI   9
$$

ILZ079-100>102-081900-
SOUTHWEST ILLINOIS

CITY           SKY/WX    TMP DP  RH WIND       PRES   REMARKS
ALTON          LGT SNOW  25  19  80 NW15G24   29.87R WCI  12
$$

ILZ064>066-069>071-074>076-080>082-084>086-088>090-092>094-081900-
SOUTH-CENTRAL ILLINOIS

CITY           SKY/WX    TMP DP  RH WIND       PRES   REMARKS
CARBONDALE     NOT AVBL
MARION         LGT SNOW  30  25  80 NW21      29.87R WCI  17
$$

ILZ067-068-072-073-078-083-087-091-081900-
SOUTHEAST ILLINOIS

CITY           SKY/WX    TMP DP  RH WIND       PRES   REMARKS
LAWRENCEVILLE  LGT SNOW  31  27  85 NW25G31   29.76S WCI  17
$$

ABBREVIATIONS USED IN REMARKS
   TC - TEMPERATURE IN CELSIUS
  WCI - WIND CHILL INDEX
   HX - HEAT INDEX
  VSB - VISIBILITY
$$





USA.gov is the U.S. government's official web portal to all federal, state and local government web resources and services.